owner,sensor,date,latitude,longitude,vertical_datum,wind_speed,wind_to_direction,wind_speed_of_gust,qcFlag 
COMPS,ioos:station:USF.COMPS:ARP:1,2015-09-01T00:00:00Z,28.4330,-82.6670,10.0,0.51,128.3,1.17,'1111122,1111122,1111122' 
COMPS,ioos:station:USF.COMPS:ARP:1,2015-09-01T00:06:00Z,28.4330,-82.6670,10.0,0.9,78.98,1.46,'1111122,1111122,1111122' 
COMPS,ioos:station:USF.COMPS:ARP:1,2015-09-01T00:12:00Z,28.4330,-82.6670,10.0,1.72,77.29,2.25,'1111122,1111122,1111122' 
COMPS,ioos:station:USF.COMPS:ARP:1,2015-09-01T00:18:00Z,28.4330,-82.6670,10.0,1.54,79.27,2.35,'1111122,1111122,1111122' 
COMPS,ioos:station:USF.COMPS:ARP:1,2015-09-01T00:24:00Z,28.4330,-82.6670,10.0,1.95,67.69,2.74,'1111122,1111122,1111122' 
COMPS,ioos:station:USF.COMPS:ARP:1,2015-09-01T00:30:00Z,28.4330,-82.6670,10.0,1.54,62.21,2.93,'1111122,1111122,1111122' 
COMPS,ioos:station:USF.COMPS:ARP:1,2015-09-01T00:36:00Z,28.4330,-82.6670,10.0,1.56,68.78,2.15,'1111122,1111122,1111122' 
COMPS,ioos:station:USF.COMPS:ARP:1,2015-09-01T00:42:00Z,28.4330,-82.6670,10.0,1.87,81.27,2.45,'1111122,1111122,1111122' 
COMPS,ioos:station:USF.COMPS:ARP:1,2015-09-01T00:48:00Z,28.4330,-82.6670,10.0,1.26,91.42,2.15,'1111122,1111122,1111122' 
COMPS,ioos:station:USF.COMPS:ARP:1,2015-09-01T00:54:00Z,28.4330,-82.6670,10.0,1.45,137.22,2.54,'1111122,1111122,1111122' 
COMPS,ioos:station:USF.COMPS:ARP:1,2015-09-01T01:00:00Z,28.4330,-82.6670,10.0,1.25,139.14,2.25,'1111122,1111122,1111122' 
COMPS,ioos:station:USF.COMPS:ARP:1,2015-09-01T01:06:00Z,28.4330,-82.6670,10.0,1.56,132.7,2.64,'1111122,1111122,1111122' 
COMPS,ioos:station:USF.COMPS:ARP:1,2015-09-01T01:12:00Z,28.4330,-82.6670,10.0,1.31,141.7,2.45,'1111122,1111122,1111122' 
COMPS,ioos:station:USF.COMPS:ARP:1,2015-09-01T01:18:00Z,28.4330,-82.6670,10.0,1.62,172.99,3.23,'1111122,1111122,1111122' 
COMPS,ioos:station:USF.COMPS:ARP:1,2015-09-01T01:24:00Z,28.4330,-82.6670,10.0,0.73,180.05,1.37,'1111122,1111122,1111122' 
COMPS,ioos:station:USF.COMPS:ARP:1,2015-09-01T01:30:00Z,28.4330,-82.6670,10.0,0.58,131.76,1.37,'1111122,1111122,1111122' 
COMPS,ioos:station:USF.COMPS:ARP:1,2015-09-01T01:36:00Z,28.4330,-82.6670,10.0,1.15,105.74,2.05,'1111122,1111122,1111122' 
COMPS,ioos:station:USF.COMPS:ARP:1,2015-09-01T01:42:00Z,28.4330,-82.6670,10.0,1.29,74.05,2.25,'1111122,1111122,1111122' 
COMPS,ioos:station:USF.COMPS:ARP:1,2015-09-01T01:48:00Z,28.4330,-82.6670,10.0,0.32,71.81,0.88,'1111122,1111122,1111122' 
COMPS,ioos:station:USF.COMPS:ARP:1,2015-09-01T01:54:00Z,28.4330,-82.6670,10.0,0.87,83.59,1.27,'1111122,1111122,1111122' 
COMPS,ioos:station:USF.COMPS:ARP:1,2015-09-01T02:00:00Z,28.4330,-82.6670,10.0,0.96,53.7,1.46,'1111122,1111122,1111122' 
COMPS,ioos:station:USF.COMPS:ARP:1,2015-09-01T02:06:00Z,28.4330,-82.6670,10.0,0.76,37.74,1.56,'1111122,1111122,1111122' 
COMPS,ioos:station:USF.COMPS:ARP:1,2015-09-01T02:12:00Z,28.4330,-82.6670,10.0,0.31,282.63,1.07,'1111122,1111122,1111122' 
COMPS,ioos:station:USF.COMPS:ARP:1,2015-09-01T02:18:00Z,28.4330,-82.6670,10.0,0.87,248.68,1.17,'1111122,1111122,1111122' 
COMPS,ioos:station:USF.COMPS:ARP:1,2015-09-01T02:24:00Z,28.4330,-82.6670,10.0,0.21,255.55,0.68,'1111122,1111122,1111122' 
COMPS,ioos:station:USF.COMPS:ARP:1,2015-09-01T02:30:00Z,28.4330,-82.6670,10.0,0.2,319.77,0.49,'1111122,1111122,1111122' 
COMPS,ioos:station:USF.COMPS:ARP:1,2015-09-01T02:36:00Z,28.4330,-82.6670,10.0,0.42,318.64,1.07,'1111122,1111122,1111122' 
COMPS,ioos:station:USF.COMPS:ARP:1,2015-09-01T02:42:00Z,28.4330,-82.6670,10.0,0.35,350.01,1.17,'1111122,1111122,1111122' 
COMPS,ioos:station:USF.COMPS:ARP:1,2015-09-01T02:48:00Z,28.4330,-82.6670,10.0,0.34,349.66,0.78,'1111122,1111122,1111122' 
COMPS,ioos:station:USF.COMPS:ARP:1,2015-09-01T02:54:00Z,28.4330,-82.6670,10.0,0.18,0.48,0.58,'1111122,1111122,1111122' 
COMPS,ioos:station:USF.COMPS:ARP:1,2015-09-01T03:00:00Z,28.4330,-82.6670,10.0,0.6,154.45,1.27,'1111122,1111122,1111122' 
COMPS,ioos:station:USF.COMPS:ARP:1,2015-09-01T03:06:00Z,28.4330,-82.6670,10.0,1.24,165.67,1.56,'1111122,1111122,1111122' 
COMPS,ioos:station:USF.COMPS:ARP:1,2015-09-01T03:12:00Z,28.4330,-82.6670,10.0,1.11,133.12,1.95,'1111122,1111122,1111122' 
COMPS,ioos:station:USF.COMPS:ARP:1,2015-09-01T03:18:00Z,28.4330,-82.6670,10.0,1.29,94.97,1.76,'1111122,1111122,1111122' 
COMPS,ioos:station:USF.COMPS:ARP:1,2015-09-01T03:24:00Z,28.4330,-82.6670,10.0,0.79,91.98,1.27,'1111122,1111122,1111122' 
COMPS,ioos:station:USF.COMPS:ARP:1,2015-09-01T03:30:00Z,28.4330,-82.6670,10.0,1.11,87.38,1.46,'1111122,1111122,1111122' 
COMPS,ioos:station:USF.COMPS:ARP:1,2015-09-01T03:36:00Z,28.4330,-82.6670,10.0,1.34,72.11,1.66,'1111122,1111122,1111122' 
COMPS,ioos:station:USF.COMPS:ARP:1,2015-09-01T03:42:00Z,28.4330,-82.6670,10.0,0.91,85.31,1.27,'1111122,1111122,1111122' 
COMPS,ioos:station:USF.COMPS:ARP:1,2015-09-01T03:48:00Z,28.4330,-82.6670,10.0,0.92,102.5,1.37,'1111122,1111122,1111122' 
COMPS,ioos:station:USF.COMPS:ARP:1,2015-09-01T03:54:00Z,28.4330,-82.6670,10.0,0.92,110.66,1.37,'1111122,1111122,1111122' 
COMPS,ioos:station:USF.COMPS:ARP:1,2015-09-01T04:00:00Z,28.4330,-82.6670,10.0,0.86,118.03,1.37,'1111122,1111122,1111122' 
COMPS,ioos:station:USF.COMPS:ARP:1,2015-09-01T04:06:00Z,28.4330,-82.6670,10.0,1.06,122.64,1.95,'1111122,1111122,1111122' 
COMPS,ioos:station:USF.COMPS:ARP:1,2015-09-01T04:12:00Z,28.4330,-82.6670,10.0,1.33,109.45,2.05,'1111122,1111122,1111122' 
COMPS,ioos:station:USF.COMPS:ARP:1,2015-09-01T04:18:00Z,28.4330,-82.6670,10.0,1.21,104.51,1.95,'1111122,1111122,1111122' 
COMPS,ioos:station:USF.COMPS:ARP:1,2015-09-01T04:24:00Z,28.4330,-82.6670,10.0,1.32,100.78,1.95,'1111122,1111122,1111122' 
COMPS,ioos:station:USF.COMPS:ARP:1,2015-09-01T04:30:00Z,28.4330,-82.6670,10.0,1.1,97.01,1.76,'1111122,1111122,1111122' 
COMPS,ioos:station:USF.COMPS:ARP:1,2015-09-01T04:36:00Z,28.4330,-82.6670,10.0,1.1,98.37,1.76,'1111122,1111122,1111122' 
COMPS,ioos:station:USF.COMPS:ARP:1,2015-09-01T04:42:00Z,28.4330,-82.6670,10.0,1.26,102.58,1.86,'1111122,1111122,1111122' 
COMPS,ioos:station:USF.COMPS:ARP:1,2015-09-01T04:48:00Z,28.4330,-82.6670,10.0,1.52,97.56,2.45,'1111122,1111122,1111122' 
COMPS,ioos:station:USF.COMPS:ARP:1,2015-09-01T04:54:00Z,28.4330,-82.6670,10.0,1.75,92.29,2.74,'1111122,1111122,1111122' 
COMPS,ioos:station:USF.COMPS:ARP:1,2015-09-01T05:00:00Z,28.4330,-82.6670,10.0,1.45,98.7,2.15,'1111122,1111122,1111122' 
COMPS,ioos:station:USF.COMPS:ARP:1,2015-09-01T05:06:00Z,28.4330,-82.6670,10.0,1.34,104.64,2.05,'1111122,1111122,1111122' 
COMPS,ioos:station:USF.COMPS:ARP:1,2015-09-01T05:12:00Z,28.4330,-82.6670,10.0,1.42,98.23,2.05,'1111122,1111122,1111122' 
COMPS,ioos:station:USF.COMPS:ARP:1,2015-09-01T05:18:00Z,28.4330,-82.6670,10.0,1.38,109.56,1.95,'1111122,1111122,1111122' 
COMPS,ioos:station:USF.COMPS:ARP:1,2015-09-01T05:24:00Z,28.4330,-82.6670,10.0,0.81,118.5,1.37,'1111122,1111122,1111122' 
COMPS,ioos:station:USF.COMPS:ARP:1,2015-09-01T05:30:00Z,28.4330,-82.6670,10.0,1.24,112.37,2.15,'1111122,1111122,1111122' 
COMPS,ioos:station:USF.COMPS:ARP:1,2015-09-01T05:36:00Z,28.4330,-82.6670,10.0,1.55,104.68,2.64,'1111122,1111122,1111122' 
COMPS,ioos:station:USF.COMPS:ARP:1,2015-09-01T05:42:00Z,28.4330,-82.6670,10.0,1.69,108.76,2.64,'1111122,1111122,1111122' 
COMPS,ioos:station:USF.COMPS:ARP:1,2015-09-01T05:48:00Z,28.4330,-82.6670,10.0,1.74,109.64,2.35,'1111122,1111122,1111122' 
COMPS,ioos:station:USF.COMPS:ARP:1,2015-09-01T05:54:00Z,28.4330,-82.6670,10.0,1.73,106.17,2.64,'1111122,1111122,1111122' 
COMPS,ioos:station:USF.COMPS:ARP:1,2015-09-01T06:00:00Z,28.4330,-82.6670,10.0,1.66,111.0,2.54,'1111122,1111122,1111122' 
COMPS,ioos:station:USF.COMPS:ARP:1,2015-09-01T06:06:00Z,28.4330,-82.6670,10.0,1.51,103.75,2.15,'1111122,1111122,1111122' 
COMPS,ioos:station:USF.COMPS:ARP:1,2015-09-01T06:12:00Z,28.4330,-82.6670,10.0,1.64,110.01,2.35,'1111122,1111122,1111122' 
COMPS,ioos:station:USF.COMPS:ARP:1,2015-09-01T06:18:00Z,28.4330,-82.6670,10.0,1.67,105.43,2.35,'1111122,1111122,1111122' 
COMPS,ioos:station:USF.COMPS:ARP:1,2015-09-01T06:24:00Z,28.4330,-82.6670,10.0,1.69,106.54,2.84,'1111122,1111122,1111122' 
COMPS,ioos:station:USF.COMPS:ARP:1,2015-09-01T06:30:00Z,28.4330,-82.6670,10.0,1.86,105.68,2.84,'1111122,1111122,1111122' 
COMPS,ioos:station:USF.COMPS:ARP:1,2015-09-01T06:36:00Z,28.4330,-82.6670,10.0,1.53,104.07,2.25,'1111122,1111122,1111122' 
COMPS,ioos:station:USF.COMPS:ARP:1,2015-09-01T06:42:00Z,28.4330,-82.6670,10.0,1.5,107.35,2.64,'1111122,1111122,1111122' 
COMPS,ioos:station:USF.COMPS:ARP:1,2015-09-01T06:48:00Z,28.4330,-82.6670,10.0,1.3,111.92,1.86,'1111122,1111122,1111122' 
COMPS,ioos:station:USF.COMPS:ARP:1,2015-09-01T06:54:00Z,28.4330,-82.6670,10.0,1.25,106.92,2.05,'1111122,1111122,1111122' 
COMPS,ioos:station:USF.COMPS:ARP:1,2015-09-01T07:00:00Z,28.4330,-82.6670,10.0,1.16,115.29,1.95,'1111122,1111122,1111122' 
COMPS,ioos:station:USF.COMPS:ARP:1,2015-09-01T07:06:00Z,28.4330,-82.6670,10.0,1.11,111.28,1.86,'1111122,1111122,1111122' 
COMPS,ioos:station:USF.COMPS:ARP:1,2015-09-01T07:12:00Z,28.4330,-82.6670,10.0,1.37,108.84,2.15,'1111122,1111122,1111122' 
COMPS,ioos:station:USF.COMPS:ARP:1,2015-09-01T07:18:00Z,28.4330,-82.6670,10.0,1.48,110.65,2.25,'1111122,1111122,1111122' 
COMPS,ioos:station:USF.COMPS:ARP:1,2015-09-01T07:24:00Z,28.4330,-82.6670,10.0,1.44,103.49,2.05,'1111122,1111122,1111122' 
COMPS,ioos:station:USF.COMPS:ARP:1,2015-09-01T07:30:00Z,28.4330,-82.6670,10.0,1.48,99.03,2.05,'1111122,1111122,1111122' 
COMPS,ioos:station:USF.COMPS:ARP:1,2015-09-01T07:36:00Z,28.4330,-82.6670,10.0,1.39,101.98,2.05,'1111122,1111122,1111122' 
COMPS,ioos:station:USF.COMPS:ARP:1,2015-09-01T07:42:00Z,28.4330,-82.6670,10.0,1.55,106.49,2.05,'1111122,1111122,1111122' 
COMPS,ioos:station:USF.COMPS:ARP:1,2015-09-01T07:48:00Z,28.4330,-82.6670,10.0,1.38,105.75,1.95,'1111122,1111122,1111122' 
COMPS,ioos:station:USF.COMPS:ARP:1,2015-09-01T07:54:00Z,28.4330,-82.6670,10.0,1.38,99.34,2.45,'1111122,1111122,1111122' 
COMPS,ioos:station:USF.COMPS:ARP:1,2015-09-01T08:00:00Z,28.4330,-82.6670,10.0,1.38,104.9,1.95,'1111122,1111122,1111122' 
COMPS,ioos:station:USF.COMPS:ARP:1,2015-09-01T08:06:00Z,28.4330,-82.6670,10.0,1.37,110.19,2.15,'1111122,1111122,1111122' 
COMPS,ioos:station:USF.COMPS:ARP:1,2015-09-01T08:12:00Z,28.4330,-82.6670,10.0,1.0,112.4,1.95,'1111122,1111122,1111122' 
COMPS,ioos:station:USF.COMPS:ARP:1,2015-09-01T08:18:00Z,28.4330,-82.6670,10.0,1.29,107.18,1.86,'1111122,1111122,1111122' 
COMPS,ioos:station:USF.COMPS:ARP:1,2015-09-01T08:24:00Z,28.4330,-82.6670,10.0,1.05,112.61,1.56,'1111122,1111122,1111122' 
COMPS,ioos:station:USF.COMPS:ARP:1,2015-09-01T08:30:00Z,28.4330,-82.6670,10.0,0.99,114.82,1.56,'1111122,1111122,1111122' 
COMPS,ioos:station:USF.COMPS:ARP:1,2015-09-01T08:36:00Z,28.4330,-82.6670,10.0,1.33,109.25,2.15,'1111122,1111122,1111122' 
COMPS,ioos:station:USF.COMPS:ARP:1,2015-09-01T08:42:00Z,28.4330,-82.6670,10.0,1.01,114.87,1.56,'1111122,1111122,1111122' 
COMPS,ioos:station:USF.COMPS:ARP:1,2015-09-01T08:48:00Z,28.4330,-82.6670,10.0,0.89,110.81,1.56,'1111122,1111122,1111122' 
COMPS,ioos:station:USF.COMPS:ARP:1,2015-09-01T08:54:00Z,28.4330,-82.6670,10.0,0.97,109.38,1.66,'1111122,1111122,1111122' 
COMPS,ioos:station:USF.COMPS:ARP:1,2015-09-01T09:00:00Z,28.4330,-82.6670,10.0,1.12,107.98,1.66,'1111122,1111122,1111122' 
COMPS,ioos:station:USF.COMPS:ARP:1,2015-09-01T09:06:00Z,28.4330,-82.6670,10.0,0.67,114.25,1.27,'1111122,1111122,1111122' 
COMPS,ioos:station:USF.COMPS:ARP:1,2015-09-01T09:12:00Z,28.4330,-82.6670,10.0,1.0,112.38,1.46,'1111122,1111122,1111122' 
COMPS,ioos:station:USF.COMPS:ARP:1,2015-09-01T09:18:00Z,28.4330,-82.6670,10.0,0.91,117.24,1.56,'1111122,1111122,1111122' 
COMPS,ioos:station:USF.COMPS:ARP:1,2015-09-01T09:24:00Z,28.4330,-82.6670,10.0,0.9,114.32,1.56,'1111122,1111122,1111122' 
COMPS,ioos:station:USF.COMPS:ARP:1,2015-09-01T09:30:00Z,28.4330,-82.6670,10.0,1.08,112.33,2.05,'1111122,1111122,1111122' 
COMPS,ioos:station:USF.COMPS:ARP:1,2015-09-01T09:36:00Z,28.4330,-82.6670,10.0,1.03,119.62,1.56,'1111122,1111122,1111122' 
COMPS,ioos:station:USF.COMPS:ARP:1,2015-09-01T09:42:00Z,28.4330,-82.6670,10.0,1.05,115.67,1.95,'1111122,1111122,1111122' 
COMPS,ioos:station:USF.COMPS:ARP:1,2015-09-01T09:48:00Z,28.4330,-82.6670,10.0,0.95,124.93,1.56,'1111122,1111122,1111122' 
COMPS,ioos:station:USF.COMPS:ARP:1,2015-09-01T09:54:00Z,28.4330,-82.6670,10.0,1.05,108.0,1.86,'1111122,1111122,1111122' 
COMPS,ioos:station:USF.COMPS:ARP:1,2015-09-01T10:00:00Z,28.4330,-82.6670,10.0,1.39,107.56,2.05,'1111122,1111122,1111122' 
COMPS,ioos:station:USF.COMPS:ARP:1,2015-09-01T10:06:00Z,28.4330,-82.6670,10.0,1.28,111.58,2.54,'1111122,1111122,1111122' 
COMPS,ioos:station:USF.COMPS:ARP:1,2015-09-01T10:12:00Z,28.4330,-82.6670,10.0,1.25,110.01,2.05,'1111122,1111122,1111122' 
COMPS,ioos:station:USF.COMPS:ARP:1,2015-09-01T10:18:00Z,28.4330,-82.6670,10.0,1.26,107.56,1.95,'1111122,1111122,1111122' 
COMPS,ioos:station:USF.COMPS:ARP:1,2015-09-01T10:24:00Z,28.4330,-82.6670,10.0,1.25,113.29,1.86,'1111122,1111122,1111122' 
COMPS,ioos:station:USF.COMPS:ARP:1,2015-09-01T10:30:00Z,28.4330,-82.6670,10.0,1.52,110.27,2.45,'1111122,1111122,1111122' 
COMPS,ioos:station:USF.COMPS:ARP:1,2015-09-01T10:36:00Z,28.4330,-82.6670,10.0,1.56,107.0,2.45,'1111122,1111122,1111122' 
COMPS,ioos:station:USF.COMPS:ARP:1,2015-09-01T10:42:00Z,28.4330,-82.6670,10.0,1.78,108.67,2.74,'1111122,1111122,1111122' 
COMPS,ioos:station:USF.COMPS:ARP:1,2015-09-01T10:48:00Z,28.4330,-82.6670,10.0,1.82,105.13,2.74,'1111122,1111122,1111122' 
COMPS,ioos:station:USF.COMPS:ARP:1,2015-09-01T10:54:00Z,28.4330,-82.6670,10.0,1.7,114.37,2.64,'1111122,1111122,1111122' 
COMPS,ioos:station:USF.COMPS:ARP:1,2015-09-01T11:00:00Z,28.4330,-82.6670,10.0,1.54,109.93,2.35,'1111122,1111122,1111122' 
COMPS,ioos:station:USF.COMPS:ARP:1,2015-09-01T11:06:00Z,28.4330,-82.6670,10.0,1.48,109.62,2.45,'1111122,1111122,1111122' 
COMPS,ioos:station:USF.COMPS:ARP:1,2015-09-01T11:12:00Z,28.4330,-82.6670,10.0,1.81,107.69,2.74,'1111122,1111122,1111122' 
COMPS,ioos:station:USF.COMPS:ARP:1,2015-09-01T11:18:00Z,28.4330,-82.6670,10.0,2.01,104.36,2.74,'1111122,1111122,1111122' 
COMPS,ioos:station:USF.COMPS:ARP:1,2015-09-01T11:24:00Z,28.4330,-82.6670,10.0,2.03,104.09,3.23,'1111122,1111122,1111122' 
COMPS,ioos:station:USF.COMPS:ARP:1,2015-09-01T11:30:00Z,28.4330,-82.6670,10.0,1.89,107.98,3.03,'1111122,1111122,1111122' 
COMPS,ioos:station:USF.COMPS:ARP:1,2015-09-01T11:36:00Z,28.4330,-82.6670,10.0,1.69,104.34,2.35,'1111122,1111122,1111122' 
COMPS,ioos:station:USF.COMPS:ARP:1,2015-09-01T11:42:00Z,28.4330,-82.6670,10.0,1.84,102.53,2.93,'1111122,1111122,1111122' 
COMPS,ioos:station:USF.COMPS:ARP:1,2015-09-01T11:48:00Z,28.4330,-82.6670,10.0,1.98,102.91,3.03,'1111122,1111122,1111122' 
COMPS,ioos:station:USF.COMPS:ARP:1,2015-09-01T11:54:00Z,28.4330,-82.6670,10.0,1.96,112.01,2.84,'1111122,1111122,1111122' 
COMPS,ioos:station:USF.COMPS:ARP:1,2015-09-01T12:00:00Z,28.4330,-82.6670,10.0,2.11,104.03,3.42,'1111122,1111122,1111122' 
COMPS,ioos:station:USF.COMPS:ARP:1,2015-09-01T12:06:00Z,28.4330,-82.6670,10.0,2.19,108.88,3.42,'1111122,1111122,1111122' 
COMPS,ioos:station:USF.COMPS:ARP:1,2015-09-01T12:12:00Z,28.4330,-82.6670,10.0,1.93,108.72,3.42,'1111122,1111122,1111122' 
COMPS,ioos:station:USF.COMPS:ARP:1,2015-09-01T12:18:00Z,28.4330,-82.6670,10.0,1.85,107.3,3.03,'1111122,1111122,1111122' 
COMPS,ioos:station:USF.COMPS:ARP:1,2015-09-01T12:24:00Z,28.4330,-82.6670,10.0,1.94,106.62,2.84,'1111122,1111122,1111122' 
COMPS,ioos:station:USF.COMPS:ARP:1,2015-09-01T12:30:00Z,28.4330,-82.6670,10.0,1.88,107.64,2.74,'1111122,1111122,1111122' 
COMPS,ioos:station:USF.COMPS:ARP:1,2015-09-01T12:36:00Z,28.4330,-82.6670,10.0,1.89,106.54,2.84,'1111122,1111122,1111122' 
COMPS,ioos:station:USF.COMPS:ARP:1,2015-09-01T12:42:00Z,28.4330,-82.6670,10.0,1.87,107.44,3.23,'1111122,1111122,1111122' 
COMPS,ioos:station:USF.COMPS:ARP:1,2015-09-01T12:48:00Z,28.4330,-82.6670,10.0,1.8,118.11,2.74,'1111122,1111122,1111122' 
COMPS,ioos:station:USF.COMPS:ARP:1,2015-09-01T12:54:00Z,28.4330,-82.6670,10.0,2.01,121.76,3.33,'1111122,1111122,1111122' 
COMPS,ioos:station:USF.COMPS:ARP:1,2015-09-01T13:00:00Z,28.4330,-82.6670,10.0,1.36,117.08,2.45,'1111122,1111122,1111122' 
COMPS,ioos:station:USF.COMPS:ARP:1,2015-09-01T13:06:00Z,28.4330,-82.6670,10.0,1.19,122.88,2.54,'1111122,1111122,1111122' 
COMPS,ioos:station:USF.COMPS:ARP:1,2015-09-01T13:12:00Z,28.4330,-82.6670,10.0,1.24,125.18,3.62,'1111122,1111122,1111122' 
COMPS,ioos:station:USF.COMPS:ARP:1,2015-09-01T13:18:00Z,28.4330,-82.6670,10.0,1.35,109.92,2.74,'1111122,1111122,1111122' 
COMPS,ioos:station:USF.COMPS:ARP:1,2015-09-01T13:24:00Z,28.4330,-82.6670,10.0,1.59,110.2,2.74,'1111122,1111122,1111122' 
COMPS,ioos:station:USF.COMPS:ARP:1,2015-09-01T13:30:00Z,28.4330,-82.6670,10.0,1.46,127.92,3.13,'1111122,1111122,1111122' 
COMPS,ioos:station:USF.COMPS:ARP:1,2015-09-01T13:36:00Z,28.4330,-82.6670,10.0,1.44,143.11,2.84,'1111122,1111122,1111122' 
COMPS,ioos:station:USF.COMPS:ARP:1,2015-09-01T13:42:00Z,28.4330,-82.6670,10.0,1.74,107.54,3.82,'1111122,1111122,1111122' 
COMPS,ioos:station:USF.COMPS:ARP:1,2015-09-01T13:48:00Z,28.4330,-82.6670,10.0,2.04,131.12,4.21,'1111122,1111122,1111122' 
COMPS,ioos:station:USF.COMPS:ARP:1,2015-09-01T13:54:00Z,28.4330,-82.6670,10.0,1.73,120.38,4.99,'1111122,1111122,1111122' 
COMPS,ioos:station:USF.COMPS:ARP:1,2015-09-01T14:00:00Z,28.4330,-82.6670,10.0,2.0,122.53,4.6,'1111122,1111122,1111122' 
COMPS,ioos:station:USF.COMPS:ARP:1,2015-09-01T14:06:00Z,28.4330,-82.6670,10.0,2.02,143.26,4.9,'1111122,1111122,1111122' 
COMPS,ioos:station:USF.COMPS:ARP:1,2015-09-01T14:12:00Z,28.4330,-82.6670,10.0,1.54,149.08,4.5,'1111122,1111122,1111122' 
COMPS,ioos:station:USF.COMPS:ARP:1,2015-09-01T14:18:00Z,28.4330,-82.6670,10.0,2.11,159.07,4.01,'1111122,1111122,1111122' 
COMPS,ioos:station:USF.COMPS:ARP:1,2015-09-01T14:24:00Z,28.4330,-82.6670,10.0,1.37,144.26,3.33,'1111122,1111122,1111122' 
COMPS,ioos:station:USF.COMPS:ARP:1,2015-09-01T14:30:00Z,28.4330,-82.6670,10.0,2.14,150.39,4.41,'1111122,1111122,1111122' 
COMPS,ioos:station:USF.COMPS:ARP:1,2015-09-01T14:36:00Z,28.4330,-82.6670,10.0,1.19,141.76,3.72,'1111122,1111122,1111122' 
COMPS,ioos:station:USF.COMPS:ARP:1,2015-09-01T14:42:00Z,28.4330,-82.6670,10.0,1.26,142.54,2.35,'1111122,1111122,1111122' 
COMPS,ioos:station:USF.COMPS:ARP:1,2015-09-01T14:48:00Z,28.4330,-82.6670,10.0,1.21,133.2,2.45,'1111122,1111122,1111122' 
COMPS,ioos:station:USF.COMPS:ARP:1,2015-09-01T14:54:00Z,28.4330,-82.6670,10.0,0.9,161.16,2.35,'1111122,1111122,1111122' 
COMPS,ioos:station:USF.COMPS:ARP:1,2015-09-01T15:00:00Z,28.4330,-82.6670,10.0,1.33,155.1,4.01,'1111122,1111122,1111122' 
COMPS,ioos:station:USF.COMPS:ARP:1,2015-09-01T15:06:00Z,28.4330,-82.6670,10.0,1.51,184.55,4.21,'1111122,1111122,1111122' 
COMPS,ioos:station:USF.COMPS:ARP:1,2015-09-01T15:12:00Z,28.4330,-82.6670,10.0,1.74,205.88,6.37,'1111122,1111122,1111122' 
COMPS,ioos:station:USF.COMPS:ARP:1,2015-09-01T15:18:00Z,28.4330,-82.6670,10.0,5.47,263.51,8.52,'1111122,1111122,1111122' 
COMPS,ioos:station:USF.COMPS:ARP:1,2015-09-01T15:24:00Z,28.4330,-82.6670,10.0,5.29,260.61,8.62,'1111122,1111122,1111122' 
COMPS,ioos:station:USF.COMPS:ARP:1,2015-09-01T15:30:00Z,28.4330,-82.6670,10.0,2.65,250.99,4.5,'1111122,1111122,1111122' 
COMPS,ioos:station:USF.COMPS:ARP:1,2015-09-01T15:36:00Z,28.4330,-82.6670,10.0,2.47,229.98,4.99,'1111122,1111122,1111122' 
COMPS,ioos:station:USF.COMPS:ARP:1,2015-09-01T15:42:00Z,28.4330,-82.6670,10.0,1.43,221.14,3.23,'1111122,1111122,1111122' 
COMPS,ioos:station:USF.COMPS:ARP:1,2015-09-01T15:48:00Z,28.4330,-82.6670,10.0,2.14,215.49,4.21,'1111122,1111122,1111122' 
COMPS,ioos:station:USF.COMPS:ARP:1,2015-09-01T15:54:00Z,28.4330,-82.6670,10.0,1.82,239.44,3.42,'1111122,1111122,1111122' 
COMPS,ioos:station:USF.COMPS:ARP:1,2015-09-01T16:00:00Z,28.4330,-82.6670,10.0,1.5,194.2,3.03,'1111122,1111122,1111122' 
COMPS,ioos:station:USF.COMPS:ARP:1,2015-09-01T16:06:00Z,28.4330,-82.6670,10.0,1.81,189.13,4.8,'1111122,1111122,1111122' 
COMPS,ioos:station:USF.COMPS:ARP:1,2015-09-01T16:12:00Z,28.4330,-82.6670,10.0,1.2,185.94,3.23,'1111122,1111122,1111122' 
COMPS,ioos:station:USF.COMPS:ARP:1,2015-09-01T16:18:00Z,28.4330,-82.6670,10.0,1.25,201.6,3.13,'1111122,1111122,1111122' 
COMPS,ioos:station:USF.COMPS:ARP:1,2015-09-01T16:24:00Z,28.4330,-82.6670,10.0,1.14,226.83,2.64,'1111122,1111122,1111122' 
COMPS,ioos:station:USF.COMPS:ARP:1,2015-09-01T16:30:00Z,28.4330,-82.6670,10.0,1.58,227.77,3.62,'1111122,1111122,1111122' 
COMPS,ioos:station:USF.COMPS:ARP:1,2015-09-01T16:36:00Z,28.4330,-82.6670,10.0,2.39,229.42,4.99,'1111122,1111122,1111122' 
COMPS,ioos:station:USF.COMPS:ARP:1,2015-09-01T16:42:00Z,28.4330,-82.6670,10.0,2.72,235.27,4.99,'1111122,1111122,1111122' 
COMPS,ioos:station:USF.COMPS:ARP:1,2015-09-01T16:48:00Z,28.4330,-82.6670,10.0,2.29,228.28,4.6,'1111122,1111122,1111122' 
COMPS,ioos:station:USF.COMPS:ARP:1,2015-09-01T16:54:00Z,28.4330,-82.6670,10.0,3.14,240.12,5.68,'1111122,1111122,1111122' 
COMPS,ioos:station:USF.COMPS:ARP:1,2015-09-01T17:00:00Z,28.4330,-82.6670,10.0,2.46,223.56,5.68,'1111122,1111122,1111122' 
COMPS,ioos:station:USF.COMPS:ARP:1,2015-09-01T17:06:00Z,28.4330,-82.6670,10.0,2.03,234.04,5.48,'1111122,1111122,1111122' 
COMPS,ioos:station:USF.COMPS:ARP:1,2015-09-01T17:12:00Z,28.4330,-82.6670,10.0,2.38,239.83,4.99,'1111122,1111122,1111122' 
COMPS,ioos:station:USF.COMPS:ARP:1,2015-09-01T17:18:00Z,28.4330,-82.6670,10.0,2.2,221.01,3.52,'1111122,1111122,1111122' 
COMPS,ioos:station:USF.COMPS:ARP:1,2015-09-01T17:24:00Z,28.4330,-82.6670,10.0,1.63,231.94,4.5,'1111122,1111122,1111122' 
COMPS,ioos:station:USF.COMPS:ARP:1,2015-09-01T17:30:00Z,28.4330,-82.6670,10.0,1.53,226.76,3.52,'1111122,1111122,1111122' 
COMPS,ioos:station:USF.COMPS:ARP:1,2015-09-01T17:36:00Z,28.4330,-82.6670,10.0,1.64,226.59,3.72,'1111122,1111122,1111122' 
COMPS,ioos:station:USF.COMPS:ARP:1,2015-09-01T17:42:00Z,28.4330,-82.6670,10.0,2.25,224.05,3.52,'1111122,1111122,1111122' 
COMPS,ioos:station:USF.COMPS:ARP:1,2015-09-01T17:48:00Z,28.4330,-82.6670,10.0,1.84,229.5,3.13,'1111122,1111122,1111122' 
COMPS,ioos:station:USF.COMPS:ARP:1,2015-09-01T17:54:00Z,28.4330,-82.6670,10.0,1.92,226.03,3.52,'1111122,1111122,1111122' 
COMPS,ioos:station:USF.COMPS:ARP:1,2015-09-01T18:00:00Z,28.4330,-82.6670,10.0,2.2,248.11,4.31,'1111122,1111122,1111122' 
COMPS,ioos:station:USF.COMPS:ARP:1,2015-09-01T18:06:00Z,28.4330,-82.6670,10.0,2.93,258.29,4.6,'1111122,1111122,1111122' 
COMPS,ioos:station:USF.COMPS:ARP:1,2015-09-01T18:12:00Z,28.4330,-82.6670,10.0,3.01,265.57,4.9,'1111122,1111122,1111122' 
COMPS,ioos:station:USF.COMPS:ARP:1,2015-09-01T18:18:00Z,28.4330,-82.6670,10.0,3.27,250.51,7.35,'1111122,1111122,1111122' 
COMPS,ioos:station:USF.COMPS:ARP:1,2015-09-01T18:24:00Z,28.4330,-82.6670,10.0,3.1,238.2,4.99,'1111122,1111122,1111122' 
COMPS,ioos:station:USF.COMPS:ARP:1,2015-09-01T18:30:00Z,28.4330,-82.6670,10.0,3.34,255.2,5.29,'1111122,1111122,1111122' 
COMPS,ioos:station:USF.COMPS:ARP:1,2015-09-01T18:36:00Z,28.4330,-82.6670,10.0,3.31,259.35,5.58,'1111122,1111122,1111122' 
COMPS,ioos:station:USF.COMPS:ARP:1,2015-09-01T18:42:00Z,28.4330,-82.6670,10.0,3.45,256.88,5.78,'1111122,1111122,1111122' 
COMPS,ioos:station:USF.COMPS:ARP:1,2015-09-01T18:48:00Z,28.4330,-82.6670,10.0,3.26,246.53,5.48,'1111122,1111122,1111122' 
COMPS,ioos:station:USF.COMPS:ARP:1,2015-09-01T18:54:00Z,28.4330,-82.6670,10.0,2.82,246.54,4.8,'1111122,1111122,1111122' 
COMPS,ioos:station:USF.COMPS:ARP:1,2015-09-01T19:00:00Z,28.4330,-82.6670,10.0,3.13,248.36,5.19,'1111122,1111122,1111122' 
COMPS,ioos:station:USF.COMPS:ARP:1,2015-09-01T19:06:00Z,28.4330,-82.6670,10.0,2.77,252.0,4.6,'1111122,1111122,1111122' 
COMPS,ioos:station:USF.COMPS:ARP:1,2015-09-01T19:12:00Z,28.4330,-82.6670,10.0,2.58,236.79,4.31,'1111122,1111122,1111122' 
COMPS,ioos:station:USF.COMPS:ARP:1,2015-09-01T19:18:00Z,28.4330,-82.6670,10.0,2.96,261.98,4.9,'1111122,1111122,1111122' 
COMPS,ioos:station:USF.COMPS:ARP:1,2015-09-01T19:24:00Z,28.4330,-82.6670,10.0,3.6,256.85,5.97,'1111122,1111122,1111122' 
COMPS,ioos:station:USF.COMPS:ARP:1,2015-09-01T19:30:00Z,28.4330,-82.6670,10.0,4.08,258.34,6.46,'1111122,1111122,1111122' 